CAPE
1044 1449 1613 1804 1946 2002 2052 2177 2363 2317 2354 2450 2471 2346 2333 2445 2551 2649 2694 3005 3203 3413 3272 3087 2626 2278 2046 2101 1756 1910 1857 2136 2224 2406 2516 2740 2416 2311 2480 2517 2448 2470 1991 1964 2093 2018 2510 2802 2620 2712 2894 3104 3210 3143 3388 3431 3398 3148 3073 3288 3094 2974 3118
619 1007 1383 1631 1802 1880 1974 2184 2267 2257 2337 2395 2485 2595 2415 2433 2526 2626 2763 2966 3194 3380 3204 2999 2813 2424 2112 2130 2023 2129 2146 2006 2256 2278 2446 2783 2733 2594 2698 2831 2648 2821 2587 1925 1962 2596 2542 2884 3043 3010 2983 2953 3146 3144 3063 3412 3425 3321 2874 3350 3227 3137 3059
302 729 1143 1534 1688 1761 1957 2021 2240 2208 2233 2305 2430 2492 2407 2547 2730 2762 2734 2904 3145 3281 3232 3045 2799 2474 2280 2295 2169 2080 1813 2112 2138 2105 2265 2409 2870 2506 2668 2966 2905 2689 2681 2316 2193 2674 3018 3037 3420 3314 3029 2716 2568 2889 3114 3098 3295 3196 3075 3324 3252 2982 3100
50 368 763 1383 1710 1839 1962 2020 2161 2166 2191 2193 2345 2406 2516 2735 2745 2718 2794 2896 3090 3206 3272 3052 2818 2491 2479 2433 2486 2390 2260 2214 2226 1960 2109 2438 2864 2800 2757 2936 2994 2482 2533 2512 2264 2074 2186 2984 3165 3654 3489 3166 3018 2724 2936 2937 2789 3131 3152 3320 3106 3008 3160
24 76 334 1179 1579 1796 1902 1927 2107 2176 2072 2096 2275 2513 2574 2631 2699 2711 2783 2821 2908 3040 3091 3067 2804 2726 2853 2724 2586 2560 2354 2252 2255 2269 2263 2569 2897 3033 2762 2705 2800 2530 2208 2426 2404 2658 2598 2980 3077 3280 3692 3651 3295 3133 3109 3264 2947 3208 3303 3204 3142 2888 2816
38 94 243 734 1368 1714 1861 1896 1953 2036 2042 2069 2172 2376 2479 2536 2536 2538 2587 2799 2869 2894 3018 3036 2918 2934 2942 2796 2577 2359 2407 2470 2381 2466 2453 2520 2589 2715 2864 2768 2556 2687 2188 2356 2422 2577 3019 3029 2936 2943 3015 3290 3025 2428 2516 2817 2893 2926 3394 3294 3182 2734 2559
0 95 281 544 1229 1634 1786 1811 1803 1977 2009 1933 2046 2345 2371 2358 2405 2373 2570 2744 2772 2835 2903 2945 2841 2856 3014 2922 2864 2718 2584 2503 2561 2595 2558 2558 2553 2805 2905 2809 2640 2702 2414 2493 2475 2496 2889 3210 2986 2754 3007 2772 2756 2395 2254 2692 2678 2874 3184 3439 3481 3306 3263
0 94 504 784 992 1299 1593 1802 1837 1852 1933 1916 1977 2168 2144 2137 2256 2393 2526 2561 2606 2611 2662 2693 2743 2846 3040 3001 2826 2792 2787 2673 2551 2633 2737 2667 2841 2787 2859 2863 2973 2797 2697 2470 2734 2746 2725 3081 3060 2952 2875 2876 2888 3008 2892 3056 3455 2906 3042 3350 3561 3520 3265
0 124 628 758 958 1026 1330 1727 1833 1784 1970 1927 1891 2049 2109 2168 2169 2278 2518 2506 2525 2417 2561 2522 2670 2704 3062 3044 3066 3166 3127 2904 2871 2877 2889 2927 2774 2669 2721 2917 2984 2724 2789 2503 2521 2873 2774 2786 2837 3065 3256 3138 3108 3324 3332 3396 3598 3313 2933 3222 3707 3856 3147
0 110 688 645 641 692 1158 1673 1934 1900 1974 2003 1935 2038 2137 2143 2237 2357 2361 2382 2400 2375 2475 2490 2587 2714 3055 3144 3133 3124 3177 3210 3128 3084 3104 2840 2666 2690 2681 2573 2742 2788 2768 2684 2426 2629 2921 2714 2629 3044 3403 3555 3407 3428 3629 3658 3563 3505 3331 3399 3680 3791 3722
0 206 954 820 663 838 1112 1390 1828 1991 2013 2232 2118 1933 2158 2140 2202 2277 2229 2247 2283 2334 2367 2526 2609 2707 3000 3154 3062 3094 3238 3258 3068 3046 3010 2807 2634 2670 2610 2455 2494 2758 2784 2740 2430 2341 2689 2886 2841 2992 3308 3530 3570 3542 3622 3712 3717 3615 3194 3176 3493 3610 3482
229 963 1592 1619 1182 1134 1151 1536 2010 2200 2220 2317 2085 1938 2198 2333 2220 2162 2110 2145 2202 2377 2447 2531 2562 2664 2944 3046 3004 3207 3310 3424 3128 2990 3034 2901 2706 2580 2538 2414 2416 2635 2821 2724 2630 2329 2283 2888 2978 2837 3264 3539 3592 3598 3761 3809 3759 3818 3628 2927 3109 3508 3456
15 127 538 872 1168 1204 1445 1771 2104 2195 2373 2210 2033 1888 2098 2163 2139 2036 2177 2248 2203 2317 2416 2536 2579 2726 2886 3098 2939 3182 3503 3438 3116 3065 2944 3090 2766 2586 2563 2474 2385 2423 2665 2778 2653 2441 2323 2512 3012 3051 3134 3544 3608 3481 3702 3893 3854 3971 3975 3516 3063 3206 3670
9 10 218 530 876 1146 1483 1813 2248 2462 2446 2224 1981 1887 1988 2138 2058 2093 2186 2208 2159 2243 2363 2520 2582 2748 2911 3060 3051 3307 3451 3516 3440 3042 3132 3121 3237 2978 2695 2607 2459 2502 2628 2867 2757 2448 2364 2357 2658 3111 3146 3393 3579 3508 3456 3843 3988 4063 4122 3996 3484 3126 3518
0 0 97 468 1045 1483 1649 1841 2612 2729 2705 2321 1978 1875 2012 2070 2052 2153 2221 2233 2257 2159 2382 2571 2624 2700 2826 3074 3143 3369 3592 3643 3510 3316 3273 3281 3416 3241 2956 2874 2836 2794 2841 2972 2870 2535 2390 2400 2381 2851 3172 3228 3366 3424 3315 3428 3820 3888 4017 4011 3981 3593 3258
18 0 0 39 881 1394 2111 2151 2628 2873 2861 2658 2096 2039 1893 2019 2163 2142 2180 2234 2196 2255 2321 2522 2659 2838 2937 3080 3211 3432 3667 3732 3681 3572 3447 3445 3463 3500 3281 3106 3111 2980 2951 2972 2999 2905 2744 2621 2576 2620 2975 3266 3398 3430 3401 3319 3532 3628 3228 3458 3912 3919 3217
182 592 688 906 13 907 1530 2156 2405 2927 2945 2846 2218 1966 1866 2096 2232 2136 2133 2304 2273 2305 2295 2506 2873 3001 3039 3202 3325 3501 3777 3827 3730 3656 3587 3571 3600 3664 3584 3345 3301 3243 3209 3212 3246 3172 3148 3000 2816 2662 2739 3070 3320 3457 3394 3445 3373 3009 2967 2884 3040 3578 3944
1790 2156 1990 2137 2356 1041 429 1638 1960 2856 2904 2660 2178 2021 1904 2199 2222 2199 2134 2335 2302 2233 2249 2505 2802 2950 3196 3182 3374 3720 3942 3892 3857 3787 3721 3661 3708 3848 3699 3592 3493 3477 3446 3352 3381 3421 3274 3171 3103 3110 2825 2844 3122 3263 3380 3498 3075 2936 2774 2612 2554 2795 3279
2032 2246 2450 2636 2807 3052 1997 414 1122 2478 2710 2343 2043 1899 1891 2154 2164 2269 2259 2521 2467 2325 2261 2540 2788 3080 3288 3280 3512 3840 4011 3953 3905 3811 3837 3898 3875 3920 3820 3690 3594 3584 3556 3373 3416 3486 3495 3455 3309 3262 3138 2907 3076 3079 3190 3381 3024 2806 2615 2475 2320 2171 2280
2159 2286 2514 2667 2971 3192 2687 1560 520 1163 2500 2641 2355 1800 1934 2182 2114 2274 2241 2512 2559 2453 2626 2752 2962 3278 3263 3408 3709 3894 4053 4003 3934 3970 3922 3949 3935 3954 3932 3887 3796 3711 3632 3537 3586 3584 3619 3403 3450 3413 3426 3279 3168 3173 3094 3119 2715 2667 2507 2324 2193 2096 2010
2133 2338 2518 2688 2906 3107 3012 1650 572 495 1755 2402 2058 1929 2057 2094 2130 2372 2393 2644 2594 2546 2722 2927 3107 3335 3419 3503 3784 3922 3992 3980 3971 3993 4000 3991 3982 3938 3985 3889 3934 3805 3656 3472 3500 3622 3662 3628 3569 3522 3618 3516 3303 3149 3071 2887 2488 2511 2463 2284 2074 1939 1858
1928 2138 2319 2522 2716 3007 3263 2359 764 198 774 2292 2005 1790 1934 2152 2030 2244 2366 2598 2607 2644 2825 3074 3284 3512 3566 3528 3796 3933 3889 3957 3963 3971 3964 3995 3992 3927 3884 3929 3903 3908 3697 3419 3348 3433 3514 3606 3468 3522 3534 3491 3426 3068 3102 2982 2451 2423 2356 2286 2144 1952 1769
1709 1937 2082 2300 2478 2842 3000 2418 1100 481 836 1970 1782 1587 1989 2114 1990 2060 2165 2574 2647 2681 2889 3266 3378 3534 3671 3541 3732 3846 3775 3653 3685 3860 3845 3883 3850 3818 3818 3864 3837 3825 3759 3561 3345 3267 3363 3498 3399 3439 3370 3421 3449 3437 3294 3262 2912 2432 2298 2202 2117 1986 2046
1654 1931 2004 2252 2608 2750 2169 1366 1111 1052 1208 2029 1848 1609 1976 2159 2038 2247 2620 2699 2754 2796 3113 3150 3148 3441 3667 3566 3654 3615 3601 3611 3653 3765 3831 3950 3870 3817 3731 3732 3815 3811 3697 3585 3304 2971 3096 3314 3539 3516 3397 3279 3370 3298 3529 3407 3139 2696 2409 2195 2033 1939 2413
1610 1865 2086 2266 2478 2434 1419 1288 1403 1179 1626 2184 1919 1924 2384 2338 2242 2339 2948 2909 2873 2978 3068 3027 3108 3376 3566 3490 3493 3527 3550 3585 3597 3720 3774 3835 3805 3738 3713 3744 3759 3656 3614 3518 3398 3135 3142 3141 3309 3384 3409 3288 3188 3002 3165 3438 3211 2826 2611 2326 2098 1931 2598
1622 1863 1968 2188 2345 2690 2131 1615 1793 1466 1986 1985 1966 2169 2687 2368 2402 2628 3071 2965 2728 2754 2923 2990 3170 3378 3402 3356 3387 3541 3490 3456 3660 3735 3693 3830 3788 3824 3724 3665 3572 3632 3678 3610 3400 3301 3184 3094 3163 3331 3406 3347 3224 3173 3031 3077 3583 3035 2726 2514 2294 2104 2406
1379 1651 1906 1914 2351 2611 2208 2012 2038 2036 1794 1933 2255 2412 2580 2300 2471 2691 3059 2915 2914 2872 2786 3014 3124 3244 3401 3413 3352 3386 3448 3434 3602 3662 3625 3723 3859 3783 3648 3629 3599 3464 3585 3541 3311 3374 3382 3206 3202 3193 3431 3386 3406 3427 3304 3225 3325 3996 2889 2727 2518 2333 2326
1406 1349 1723 2000 2207 2555 2722 1994 2144 1950 1932 2334 2654 2557 2514 2582 2768 3376 3334 3224 3095 3086 2873 3036 3228 3437 3554 3561 3363 3383 3413 3392 3556 3620 3509 3671 3876 3931 3862 3762 3595 3544 3635 3480 3517 3620 3616 3655 3455 3442 3463 3530 3622 3685 3654 3446 3073 3996 3035 2776 2592 2542 2562
1529 1333 1497 1913 2146 2302 2600 2612 2017 2071 2067 2462 2662 2665 2683 2791 3342 3540 3478 3414 3455 3245 3074 3172 3426 3639 3740 3814 3505 3453 3535 3593 3636 3669 3503 3576 3860 4043 4048 3930 3733 3735 3804 3815 3828 3915 3886 4077 3924 3829 3773 3839 3939 3806 3851 3937 4108 3054 3124 2992 2862 2812 2841
1731 1626 1438 1625 1875 2510 2352 2809 3050 2182 2083 2549 2557 2533 2786 2978 3487 3687 3826 3805 3739 3272 3203 3562 3769 3976 4058 3997 3776 3775 3819 3808 3802 3937 3748 3876 3968 4186 4301 4240 4071 4049 4063 4213 4076 3973 3912 3858 3760 3669 3627 3656 3690 3748 3957 4364 4065 3560 3285 3091 2998 3078 3110
1782 1723 1583 1669 1990 2513 2605 2567 3205 3193 2415 2405 2434 2611 2879 2959 3672 4052 4039 4041 3865 3515 3572 3961 4208 4382 4358 4220 4058 4068 4092 4194 4177 4233 4130 4051 4156 4398 4498 4576 4445 4374 4430 4420 4150 3869 3822 3746 3866 3958 3884 3844 3696 3967 4103 4183 3784 4256 3652 3541 3338 3349 3366
2082 2054 1973 1910 1776 2270 2647 2680 2782 3319 3625 3472 3126 3046 3202 3406 3947 4250 4149 4226 4151 3881 4199 4686 4858 4744 4648 4532 4313 4469 4358 4376 4377 4585 4458 4392 4369 4565 4727 4728 4596 4527 4626 4352 4066 4025 3883 4076 4045 4068 4057 4170 4220 3887 4123 3847 4306 4478 4277 3890 3752 3611 3571
2216 2268 2249 1991 1898 1947 2234 2710 3026 3059 3227 3507 3611 3616 3092 3392 3514 3986 4019 4446 4339 4193 4836 4916 5037 4868 4759 4770 4569 4641 4466 4544 4456 4598 4664 4563 4524 4683 4817 4747 4783 4718 4761 4374 4152 4141 4206 4076 4115 4183 3735 3823 4269 4273 4299 4337 4368 4588 4746 3985 3982 3875 3662
2263 2450 2407 2281 2386 2174 2059 2138 2539 3076 3220 3228 3437 3997 4186 4377 4434 4669 4862 4473 3994 3924 4551 4550 4782 4679 4661 4708 4639 4759 4768 4688 4502 4532 4774 4720 4603 4557 4739 4723 4696 4882 4855 4728 4453 4444 4375 4130 4101 4088 3912 3941 4352 4413 4278 4129 4375 4581 4630 4430 4176 4030 3820
2290 2557 2536 2546 2601 2521 2490 2221 2083 2325 2686 3033 3500 3658 3845 3929 4139 4340 4448 4162 3994 4142 4622 4648 4623 4507 4684 4692 4706 4661 4727 4754 4641 4605 4681 4935 4904 4822 5955 6021 4948 4910 4892 4850 5071 4901 4750 4678 4055 4038 4040 4524 4494 4095 4562 4657 4154 4349 4219 5505 4239 5308 4229
2299 2403 2605 2732 2857 2748 2527 2344 2133 2152 2177 2441 3012 3207 3574 3884 4238 4408 4602 4873 4982 5066 5263 4926 4653 4554 4814 4829 4895 4870 4842 4754 4775 4585 4544 4906 5097 4587 4271 4234 4483 4385 4491 5138 4636 4437 4221 3990 4908 5115 5055 4344 4500 4581 4896 4789 4045 4549 4007 4092 4174 4100 3807
2216 2535 2544 2726 2818 2736 2674 2612 2418 2280 2371 2467 2642 2682 2852 3060 3567 3926 4508 4897 5294 5316 4984 5167 4922 4610 4871 4758 4975 5188 5100 5202 5176 5046 4906 5023 5430 5199 4396 4198 4314 4387 4314 4336 4636 4486 4355 4250 4137 4246 4375 4124 5124 4059 4058 4060 4060 4075 4123 4178 3997 3803 3815
1456 1767 2296 2604 2678 2762 2760 2774 2713 2618 2540 2630 2746 2902 3022 3263 3326 3446 3778 4335 4764 5642 5814 5464 5452 5249 5301 5223 5308 5183 5068 5014 5110 5300 5472 5309 5384 5421 4828 4506 4336 4196 4231 4294 4355 4415 4390 4268 4106 4075 4209 4243 4182 4212 4105 4103 4087 3978 3938 3912 3899 3908 3867
Wind_Speed
25 24 22 19 15 12 10 10 11 12 11 9 7 6 4 6 8 10 11 11 11 12 12 13 12 13 10 10 9 9 9 10 12 12 11 11 11 10 10 10 10 10 10 10 11 13 14 14 15 14 13 13 14 14 14 15 15 14 14 13 12 11 10
27 25 22 19 15 12 9 9 11 13 14 13 12 10 7 6 7 9 11 11 11 12 13 14 14 13 12 11 11 9 9 10 12 14 13 13 12 12 11 11 11 10 9 11 13 14 14 13 12 12 11 11 11 11 11 11 12 12 11 10 11 10 10
27 26 24 20 16 13 10 9 10 12 14 15 16 14 11 8 7 8 12 12 12 13 15 14 15 15 15 13 11 10 10 11 12 12 11 12 11 10 11 11 11 10 9 11 13 14 13 12 10 9 9 9 9 8 8 9 8 8 8 7 7 7 7
nan 26 24 19 16 15 14 11 9 10 12 15 16 16 14 12 9 10 12 13 13 13 13 15 16 16 17 15 14 13 12 12 12 12 12 13 13 12 12 11 11 10 10 12 13 13 13 11 9 8 6 6 6 6 5 6 6 6 6 5 5 5 5
nan nan 24 22 20 20 17 14 12 11 13 14 15 16 16 15 13 11 12 14 13 12 13 16 19 20 21 19 19 17 14 12 13 14 14 14 14 13 12 10 10 9 11 12 13 12 12 10 9 7 5 4 3 2 3 3 4 3 3 4 3 3 4
nan nan 25 25 23 21 17 15 13 13 13 16 17 17 18 18 15 12 11 14 14 15 17 18 18 20 20 19 19 18 16 15 16 15 15 15 13 14 13 12 12 11 10 12 12 11 10 9 8 6 5 3 1 1 2 2 2 3 3 3 2 3 3
nan nan 27 26 25 22 18 16 15 14 14 16 17 17 18 18 17 14 13 13 14 15 15 15 16 18 20 22 20 18 16 16 16 14 15 14 14 15 15 15 14 13 13 13 13 12 10 9 7 6 5 3 3 2 3 2 2 2 2 2 3 3 4
nan nan 26 25 25 22 20 18 16 16 19 20 20 19 18 18 19 17 13 12 14 16 15 15 16 18 20 21 22 19 18 17 18 17 17 15 15 15 16 16 16 15 14 13 13 12 11 9 9 7 5 4 4 5 5 5 4 2 3 2 3 4 5
nan 27 25 25 24 23 21 20 19 20 22 21 20 19 18 20 20 18 15 14 14 14 14 15 16 19 22 22 22 21 22 20 20 19 17 15 17 15 16 17 16 16 15 14 14 13 12 11 10 9 7 6 6 7 6 6 5 4 3 3 3 4 4
nan 27 25 25 25 24 25 25 24 24 23 23 22 21 20 20 20 19 18 15 14 12 15 17 18 20 21 21 21 22 24 22 21 19 18 16 18 16 16 18 18 17 15 15 15 14 14 12 11 10 9 8 8 8 7 7 6 5 4 4 4 4 4
nan 31 31 30 29 28 28 26 25 23 21 22 23 22 22 22 22 21 20 17 15 14 16 18 20 20 20 20 21 23 23 22 21 20 19 18 19 16 17 17 18 19 16 16 15 14 15 14 12 11 10 10 9 9 8 7 6 5 5 5 5 5 5
42 41 39 37 34 31 27 26 25 26 23 22 23 24 24 24 23 22 21 18 17 18 18 19 20 20 21 21 22 23 22 22 21 19 19 19 19 18 18 19 18 19 19 16 15 15 15 14 14 13 11 11 11 10 9 8 7 6 5 5 6 7 6
nan 39 39 37 35 34 33 31 27 26 24 22 23 25 26 25 24 23 23 21 20 20 20 20 21 21 22 22 21 23 22 22 21 21 20 21 21 21 21 20 19 19 19 18 16 16 15 14 14 14 13 13 12 10 10 9 7 7 6 6 6 7 8
nan nan 44 42 38 34 31 29 27 27 25 23 24 25 27 26 24 24 23 22 22 23 22 22 21 21 22 23 22 22 21 22 22 22 22 23 24 23 22 22 22 21 22 20 18 16 15 15 15 15 15 14 13 11 11 10 8 7 7 7 8 8 9
nan nan nan 42 39 36 33 31 30 27 26 24 22 23 25 26 25 25 24 22 22 23 23 23 22 22 23 24 22 22 23 24 25 25 24 24 25 24 23 24 24 25 24 22 20 20 18 17 16 16 15 15 14 12 11 10 9 9 9 10 10 10 9
nan nan nan nan 41 37 34 31 29 27 26 24 21 21 23 26 26 25 23 21 22 23 24 25 24 24 23 23 22 24 25 26 27 27 26 25 24 24 25 25 26 26 24 22 21 22 21 20 18 17 17 17 15 14 13 11 11 12 12 12 12 11 10
61 61 61 58 nan 43 39 36 32 30 27 23 21 20 23 25 26 26 22 21 22 23 25 26 26 25 24 24 24 26 27 28 27 27 26 25 25 26 25 26 27 27 26 25 24 23 23 22 20 18 18 17 16 14 13 12 12 15 17 15 12 12 11
65 64 63 60 58 54 47 40 35 32 26 22 21 22 23 26 27 26 23 22 22 23 25 26 26 26 26 25 26 27 28 28 27 26 26 26 25 26 25 26 27 26 26 25 25 25 24 22 21 20 19 19 16 14 13 12 14 19 18 17 16 13 11
64 64 64 62 59 54 48 44 38 32 27 24 25 24 21 24 26 24 24 24 24 25 26 26 26 27 27 27 27 27 28 28 27 26 26 26 26 27 27 25 25 25 25 24 25 26 23 22 22 21 21 19 16 14 14 13 18 20 19 18 18 16 12
62 63 62 61 59 56 53 48 43 36 29 27 25 22 21 24 26 26 28 30 29 27 26 27 27 28 28 28 27 27 27 27 26 26 25 26 26 26 25 24 23 23 24 25 26 24 23 22 22 22 21 19 17 16 15 13 21 21 20 19 18 17 15
60 61 60 59 57 56 53 49 42 37 33 27 25 27 27 27 29 33 32 31 29 28 28 28 28 29 29 28 26 27 27 26 25 25 25 25 25 25 23 22 23 23 24 24 24 23 23 22 22 22 20 19 17 16 15 14 20 22 21 20 20 19 17
55 57 58 58 58 55 51 46 41 36 33 32 31 31 28 27 30 33 32 32 30 29 29 30 28 29 31 28 25 26 27 26 25 25 25 24 23 22 21 21 22 22 23 23 23 23 24 23 22 20 19 17 16 15 14 14 20 23 21 21 20 22 17
49 52 55 56 55 54 50 42 39 37 38 37 34 33 30 31 32 33 32 31 30 29 30 29 28 29 30 27 24 25 26 25 24 24 23 23 21 19 19 21 21 22 24 22 21 22 22 22 21 20 18 17 17 15 15 15 20 24 23 22 24 23 17
44 47 50 51 51 48 44 40 38 37 37 35 33 33 34 33 34 34 32 31 31 29 29 26 26 29 30 26 24 25 26 26 25 24 23 22 20 19 19 20 21 22 22 20 20 19 20 21 21 20 18 17 16 16 16 16 21 25 24 24 26 23 18
41 43 44 45 45 45 42 39 38 37 38 37 37 39 39 37 36 34 33 31 29 27 26 23 25 28 28 25 25 25 26 26 25 24 22 20 19 19 19 19 20 21 21 20 20 19 20 20 20 19 19 17 16 18 16 15 20 27 25 26 27 23 19
42 41 40 39 41 42 39 36 36 36 36 36 38 41 40 39 38 36 34 30 28 25 22 21 24 27 26 26 26 25 26 27 25 23 21 19 19 19 19 20 20 19 19 19 19 19 19 19 18 17 18 18 16 17 15 15 17 25 26 27 27 25 21
42 39 39 39 40 39 35 34 32 33 33 36 38 39 39 39 40 39 36 32 28 23 19 21 27 29 27 26 25 25 25 26 25 23 21 20 20 20 19 19 18 18 18 18 18 18 18 17 18 17 17 17 17 16 16 17 15 24 28 28 28 26 23
44 41 39 39 38 37 36 30 28 29 30 33 33 35 37 40 42 42 37 31 25 22 24 27 30 30 28 26 25 24 24 24 24 23 22 21 21 20 18 18 18 18 18 18 19 18 18 18 18 18 17 17 16 15 15 17 18 18 27 27 27 26 25
46 45 44 42 40 38 35 31 26 25 26 29 29 31 34 37 40 39 34 26 24 28 29 30 31 30 27 26 25 24 23 23 23 23 22 21 20 19 18 19 18 18 18 18 18 18 17 17 17 16 16 15 15 14 13 13 18 17 22 25 26 26 25
49 49 49 47 41 39 32 27 26 24 24 27 28 29 31 33 36 34 28 25 31 33 32 32 31 30 27 26 25 24 23 23 22 22 21 20 19 18 18 18 18 17 18 17 17 17 15 15 13 12 11 10 11 12 12 15 12 17 21 24 24 24 24
53 54 52 51 48 42 34 27 27 30 29 28 28 30 29 30 31 31 30 33 35 34 33 33 32 29 27 26 25 23 22 22 22 20 20 19 18 17 16 16 16 16 16 16 15 13 13 13 13 12 11 11 12 11 12 12 12 12 20 26 25 23 23
60 59 56 53 51 45 38 30 27 27 31 35 35 34 32 32 33 33 35 37 36 35 34 33 31 29 28 26 24 22 22 21 20 18 17 17 17 17 17 17 16 16 17 16 15 14 14 14 13 12 12 12 12 12 12 14 14 13 17 25 25 24 25
64 60 57 56 53 50 43 38 34 33 31 35 36 36 36 36 36 37 37 38 36 35 35 32 30 30 28 26 25 24 23 21 20 19 18 17 19 19 19 19 19 18 18 18 17 17 17 16 15 14 15 14 14 14 15 16 16 17 17 26 25 23 24
67 63 61 59 57 54 50 45 43 41 39 36 37 39 39 39 40 38 38 37 36 34 34 31 30 29 28 28 28 28 25 23 23 21 22 21 21 22 22 21 20 20 20 20 20 20 18 18 17 18 17 17 17 17 18 18 18 19 19 20 25 25 26
66 64 61 60 56 55 52 50 47 45 46 47 44 41 40 40 40 39 37 37 36 36 34 32 31 31 31 32 31 30 29 28 27 25 25 26 25 27 34 29 24 22 23 23 23 22 21 20 21 21 20 19 20 21 21 20 20 20 22 24 27 25 26
66 67 65 60 54 56 55 53 51 49 49 48 47 46 46 46 44 41 36 34 36 36 35 34 33 33 34 34 33 32 33 31 31 30 29 30 29 37 41 46 49 46 38 34 44 46 46 44 32 31 27 22 22 28 24 25 29 35 35 38 37 40 40
72 66 64 61 60 59 58 55 52 50 50 50 50 49 48 47 46 44 41 40 36 34 36 36 37 36 36 35 34 35 35 37 37 36 35 35 34 38 41 41 47 54 53 49 47 49 50 49 48 48 47 42 35 43 48 45 45 47 46 47 46 44 44
72 66 62 61 61 60 59 56 53 51 49 48 49 50 49 49 48 45 41 38 40 39 36 37 38 38 37 37 37 40 39 38 38 38 38 37 38 41 38 38 41 44 55 56 53 55 56 55 54 52 51 51 48 42 41 45 48 48 48 47 48 47 48
Wind_Direction
225 230 232 235 241 251 271 288 296 293 296 298 298 308 283 234 217 215 212 221 228 226 223 221 214 208 195 187 176 173 161 156 162 170 167 170 172 174 172 172 170 168 159 149 139 130 129 122 117 111 105 98 93 87 86 83 82 82 81 81 85 87 82
222 228 233 237 240 247 264 283 294 292 298 304 304 313 294 277 233 218 213 219 228 230 227 221 220 215 208 196 186 173 164 159 168 177 173 174 179 181 182 180 178 176 159 147 145 143 137 130 123 115 109 103 97 92 85 82 79 77 77 71 73 75 74
221 226 231 235 236 239 258 268 289 298 305 303 308 313 315 298 264 237 223 220 225 226 227 224 219 217 215 209 194 175 167 170 174 173 171 176 179 185 190 189 186 179 157 146 147 151 148 140 135 127 117 113 105 95 88 81 76 73 70 63 61 57 57
nan 224 230 235 235 238 250 260 283 290 293 304 310 317 313 306 282 245 229 227 229 228 231 229 226 221 219 219 210 194 178 176 179 180 177 179 184 190 195 195 192 180 166 154 154 155 159 158 149 146 136 133 123 110 91 84 76 66 62 54 56 41 34
nan nan 228 230 231 234 242 252 268 286 301 306 303 301 305 300 289 262 241 231 230 230 231 233 225 224 221 223 216 205 190 182 186 188 188 186 185 193 194 196 197 185 175 169 167 171 170 172 168 169 170 159 136 116 89 70 71 53 52 39 41 19 17
nan nan 227 231 234 240 247 261 277 293 298 298 299 300 298 301 290 289 262 244 233 228 226 229 231 230 228 227 222 215 203 193 194 196 193 192 186 188 196 195 195 194 186 179 181 183 186 181 180 186 187 194 195 69 19 14 22 25 14 17 6 356 356
nan nan 226 231 236 242 250 259 271 278 279 278 278 275 275 281 289 283 266 253 245 243 241 240 237 237 233 231 229 227 218 209 205 202 200 196 193 193 197 198 197 199 192 192 187 193 197 198 198 200 202 205 239 284 290 300 315 313 326 337 338 325 325
nan nan 225 231 235 241 246 253 260 262 260 259 265 272 279 279 278 280 284 267 253 245 238 241 240 237 238 236 236 238 231 222 214 212 209 204 203 200 200 200 204 204 200 193 197 199 201 209 214 217 226 237 260 268 278 284 290 296 287 306 324 330 302
nan 221 223 225 229 233 238 244 248 253 260 264 271 274 276 272 276 281 288 278 261 253 249 245 242 239 238 237 239 243 239 233 225 222 221 215 210 205 203 205 208 209 205 199 202 205 204 214 218 228 238 246 257 268 270 275 279 271 270 283 316 324 311
nan 218 222 220 219 221 225 231 238 241 251 255 256 259 262 262 267 270 272 276 269 265 256 247 241 241 241 240 241 244 242 239 234 234 230 223 215 211 206 208 211 213 209 207 203 208 214 214 221 234 243 252 258 261 261 269 271 271 281 300 314 318 311
nan 214 213 212 212 215 221 229 240 246 254 256 257 260 258 261 264 270 277 280 278 268 260 248 243 243 244 244 245 245 244 244 240 237 236 232 224 219 213 211 214 216 216 213 206 210 219 222 225 236 247 250 257 258 260 265 272 280 288 298 308 319 312
208 210 210 209 210 215 219 225 235 243 248 249 255 255 253 253 260 267 274 282 277 270 263 255 247 247 247 245 245 244 248 246 243 242 242 239 234 229 221 217 216 220 221 217 215 216 220 228 232 239 250 252 253 255 259 261 267 278 290 309 312 307 305
nan 210 210 209 210 211 215 220 231 243 249 251 252 250 248 251 256 263 269 278 280 273 269 261 252 250 250 249 250 246 247 247 246 243 242 242 239 234 228 224 223 224 225 223 220 224 226 232 238 241 247 252 252 255 259 264 269 274 288 300 301 300 300
nan nan 207 209 211 215 219 223 230 240 250 253 249 247 246 248 253 260 266 275 276 275 274 264 261 257 255 252 250 249 250 245 244 244 242 241 240 238 234 230 227 227 226 226 225 226 231 235 243 245 246 251 255 255 257 262 265 273 281 287 290 291 297
nan nan nan 212 216 219 221 225 227 236 246 252 254 253 253 249 251 255 260 268 273 277 283 279 272 265 259 256 254 252 251 246 242 239 240 241 242 241 238 236 233 232 230 229 227 227 232 236 241 248 249 251 253 256 256 257 260 262 274 281 289 290 297
nan nan nan nan 215 219 224 225 229 235 243 247 250 250 251 249 252 259 266 274 282 284 286 284 283 276 267 262 258 253 253 251 244 241 240 241 244 244 243 240 238 236 235 234 231 231 232 236 241 246 252 252 254 254 253 251 247 263 288 285 279 289 286
197 199 201 204 nan 213 217 222 225 232 237 239 241 244 245 250 255 259 266 271 279 284 288 288 287 286 277 267 259 255 255 252 250 246 244 243 242 243 244 244 241 239 238 235 235 235 237 238 244 248 250 254 253 255 252 249 246 277 289 296 291 282 285
198 199 201 203 206 206 209 216 222 227 230 233 236 238 241 247 254 258 264 270 278 284 286 285 286 287 281 271 261 257 258 255 255 252 249 245 245 245 245 243 243 242 240 239 240 239 240 243 246 249 251 251 253 253 252 248 258 280 292 299 302 294 285
198 199 201 203 204 204 203 206 215 223 223 225 230 234 243 254 257 260 263 266 270 271 277 280 281 279 278 274 267 261 258 257 258 257 252 249 247 245 244 244 244 244 244 244 242 242 243 245 249 252 253 253 254 251 251 245 267 283 294 299 303 307 303
200 200 201 203 204 202 202 205 208 213 217 221 228 236 240 248 255 254 254 255 258 265 267 270 272 273 276 274 270 264 261 260 260 258 255 252 249 247 247 247 246 245 243 241 242 243 245 248 251 252 255 256 255 251 245 243 268 287 293 297 301 303 301
201 202 201 202 203 204 203 203 206 208 212 215 223 229 232 237 243 245 249 255 261 263 264 267 269 270 272 273 270 265 262 262 261 259 256 254 252 250 250 250 246 247 244 242 243 244 244 246 250 252 255 257 257 254 251 245 269 284 294 296 298 299 296
200 201 201 203 202 203 206 205 206 208 211 213 219 228 230 234 242 245 249 253 258 260 262 263 265 268 270 271 271 269 266 264 261 259 257 255 254 253 253 251 251 251 248 244 242 242 243 246 248 254 257 258 258 256 254 250 274 280 289 294 295 295 283
197 198 200 202 203 203 207 210 208 210 217 220 222 229 229 230 238 243 248 252 255 259 262 262 266 270 271 273 274 272 267 262 260 259 258 255 255 254 253 252 252 251 249 248 245 246 247 249 251 251 254 259 260 260 253 249 267 282 288 292 295 287 282
199 198 199 202 204 204 209 214 215 218 223 230 234 238 236 234 237 241 245 249 252 258 261 266 270 270 270 273 276 273 267 261 260 260 259 257 257 255 251 251 249 252 252 252 250 249 249 250 249 252 253 258 262 263 258 253 268 285 290 294 297 296 289
201 201 200 201 201 203 207 217 219 221 228 232 238 242 244 243 242 241 244 249 254 257 261 266 268 270 273 276 276 274 267 260 258 258 259 259 258 254 254 253 251 250 250 250 249 247 247 249 249 251 254 258 262 265 267 259 267 286 293 297 300 298 287
202 200 197 196 198 200 203 212 219 222 230 234 238 244 247 247 242 240 241 246 250 254 259 267 270 269 269 270 272 271 266 258 256 255 257 258 256 254 253 251 250 253 254 251 249 250 250 253 252 256 257 259 264 264 271 268 264 281 297 298 301 306 289
199 196 192 192 198 197 204 213 217 221 225 229 236 243 245 242 239 239 239 242 246 253 258 262 264 264 265 268 271 273 271 259 256 256 253 251 252 252 252 253 253 254 255 254 252 252 252 256 256 256 257 258 262 262 269 270 275 279 300 299 303 306 301
195 195 196 196 202 203 206 207 213 219 225 231 237 240 241 238 237 238 240 242 247 253 251 256 262 264 265 269 274 276 271 261 254 253 248 248 250 252 253 252 252 251 254 251 252 255 256 255 254 254 256 259 262 264 266 273 285 274 294 301 303 305 312
195 198 200 199 202 206 204 207 213 218 226 233 237 235 235 237 238 238 239 242 246 247 249 255 260 263 265 268 273 272 268 260 259 253 248 250 253 254 253 251 251 249 249 249 249 252 253 254 252 252 253 255 258 260 260 260 268 284 279 300 305 309 310
197 198 199 201 204 203 206 209 211 213 222 225 229 229 229 233 234 234 235 239 240 243 247 251 257 260 263 265 269 267 263 261 259 255 251 254 252 251 251 250 250 249 247 247 245 245 247 246 248 247 247 248 250 253 255 260 261 280 295 294 313 310 315
195 196 198 200 203 201 204 214 214 212 212 219 226 225 225 226 226 227 231 235 240 244 248 250 254 257 259 261 263 262 259 257 254 254 250 249 248 244 240 243 244 242 240 241 240 237 236 239 240 240 238 239 248 253 261 267 275 273 295 308 312 319 320
195 195 197 199 201 201 206 212 219 216 211 210 213 214 216 217 218 223 229 235 240 245 245 246 249 253 255 254 255 255 254 256 255 251 246 242 233 230 226 229 230 227 231 231 230 228 229 230 233 237 241 244 250 258 264 273 275 283 287 297 307 314 322
194 194 196 199 199 203 207 212 218 216 212 209 206 207 211 212 214 221 227 232 238 240 239 241 243 245 247 248 247 247 247 250 246 242 236 230 224 222 221 222 222 225 228 232 232 233 234 234 238 243 247 249 252 257 262 269 276 281 284 286 292 298 301
194 195 196 200 202 207 210 210 214 215 215 214 212 208 209 212 216 220 224 228 230 232 231 233 236 238 241 243 241 240 242 241 241 238 230 228 225 224 224 224 225 228 234 236 238 239 242 245 247 250 252 253 256 258 260 265 272 278 282 285 288 291 294
196 198 199 200 202 205 208 211 214 214 214 215 215 216 213 212 214 218 222 224 226 228 228 227 230 231 235 238 239 239 239 238 238 235 229 229 227 225 221 220 227 234 236 236 238 240 244 246 248 251 250 253 254 257 259 262 269 274 273 271 271 280 287
197 199 201 201 204 207 208 210 211 211 211 214 216 219 220 218 217 218 221 224 224 225 227 228 227 229 232 236 238 238 240 238 237 236 232 231 231 231 228 226 227 223 225 232 223 222 225 230 235 235 237 246 253 246 251 254 251 251 274 270 270 265 260
198 199 201 201 204 207 208 209 209 209 210 211 214 218 221 221 220 220 221 221 222 227 227 228 227 227 229 234 237 240 240 238 237 237 235 232 232 233 236 234 231 230 230 230 229 231 230 230 230 231 234 235 242 246 245 251 253 253 256 261 264 267 269
200 201 204 205 206 207 209 209 209 209 207 208 213 216 218 221 222 222 223 223 220 221 229 230 228 228 228 231 235 242 244 244 243 241 241 238 237 237 236 238 239 236 232 231 233 236 236 234 232 231 233 238 243 244 250 248 253 258 260 264 267 271 273